Rogers City, MI

7:31 PM EST on January 17, 2018 (GMT -0500)
Presque Isle County

Weather History for KPZQ - January, 2013

Change the Weather History Date:

Tuesday, January 8, 2013

  Actual Average (KAPN) Record (KAPN)
Temperature  
Mean Temperature 35 °F -  
Max Temperature 39 °F 23 °F 50 °F (1965)
Min Temperature 31 °F 3 °F -21 °F (1968)
Degree Days  
Heating Degree Days 30    
Moisture  
Dew Point 28 °F    
Average Humidity 79    
Maximum Humidity 85    
Minimum Humidity 66    
Precipitation  
Precipitation 0.00 in - - ()
Sea Level Pressure  
Sea Level Pressure 30.06 in    
Wind  
Wind Speed 8 mph (SSW)    
Max Wind Speed 13 mph    
Max Gust Speed 20 mph    
Visibility 9 miles    
Events      
Averages and records for this station are not official NWS values.
T = Trace of Precipitation, MM = Missing Value Source: NWS Daily Summary

Daily Weather History Graph

Daily Weather History Graph

Search for Another Location

Airport or City:

Trip Planner

Search our weather history database for the weather conditions in past years. The results will help you decide how hot, cold, wet, or windy it might be!

Date:

Astronomy

Jan. 08, 2013 Rise Set
Actual Time 8:14 AM EST 5:10 PM EST
Civil Twilight 7:40 AM EST 5:43 PM EST
Nautical Twilight 7:03 AM EST 6:21 PM EST
Astronomical Twilight 6:27 AM EST 6:56 PM EST
Moon 4:45 AM EST (1/8) 2:12 PM EST (1/8)
Length of Visible Light 10h 03m
Length of Day
8h 56m
Waning Crescent, 14% of the Moon is Illuminated
Jan 8
Waning Crescent
Jan 11
New
Jan 18
First Quarter
Jan 26
Full
Feb 3
Last Quarter

Hourly Weather History & Observations

Time (EST) Temp. Windchill Dew Point Humidity Pressure Visibility Wind Dir Wind Speed Gust Speed Precip Events Conditions
12:35 AM 34.5 °F 26.7 °F 27.1 °F 74% 29.93 in 10.0 mi SW 10.4 mph 16.1 mph N/A   Clear
12:56 AM 34.2 °F 26.2 °F 26.6 °F 74% 29.93 in 10.0 mi WSW 10.4 mph 17.3 mph N/A   Clear
1:35 AM 34.0 °F 28.0 °F 26.4 °F 74% 29.96 in 10.0 mi WSW 6.9 mph - N/A   Clear
1:56 AM 33.3 °F 26.4 °F 26.1 °F 75% 29.96 in 10.0 mi SW 8.1 mph - N/A   Clear
2:15 AM 33.3 °F 26.4 °F 26.2 °F 75% 29.97 in 10.0 mi SW 8.1 mph - N/A   Clear
2:35 AM 32.9 °F 25.9 °F 26.2 °F 76% 29.98 in 10.0 mi SW 8.1 mph - N/A   Clear
2:56 AM 32.9 °F 24.7 °F 26.6 °F 78% 29.98 in 10.0 mi SW 10.4 mph - N/A   Clear
3:15 AM 32.7 °F 25.7 °F 26.6 °F 78% 29.98 in 10.0 mi SW 8.1 mph - N/A   Clear
3:35 AM 32.5 °F 24.2 °F 26.6 °F 79% 29.99 in 10.0 mi SW 10.4 mph - N/A   Clear
3:55 AM 32.5 °F 25.5 °F 26.6 °F 79% 30.00 in 10.0 mi SW 8.1 mph - N/A   Clear
4:15 AM 32.0 °F 26.4 °F 26.4 °F 80% 30.01 in 10.0 mi SW 5.8 mph - N/A   Clear
4:36 AM 32.0 °F 24.8 °F 26.6 °F 80% 30.00 in 10.0 mi SW 8.1 mph - N/A   Clear
4:55 AM 32.0 °F 24.2 °F 26.6 °F 80% 30.01 in 10.0 mi SW 9.2 mph - N/A   Scattered Clouds
5:15 AM 32.0 °F 24.2 °F 26.6 °F 80% 30.01 in 10.0 mi SW 9.2 mph - N/A   Clear
5:36 AM 31.6 °F 24.4 °F 26.4 °F 81% 30.02 in 10.0 mi SW 8.1 mph - N/A   Clear
5:55 AM 31.8 °F 24.6 °F 26.6 °F 81% 30.02 in 10.0 mi SW 8.1 mph - N/A   Clear
6:15 AM 31.6 °F 25.1 °F 26.6 °F 82% 30.03 in 10.0 mi SW 6.9 mph - N/A   Clear
6:36 AM 31.6 °F 26.0 °F 26.8 °F 82% 30.04 in 10.0 mi SW 5.8 mph - N/A   Clear
6:55 AM 31.5 °F 25.8 °F 26.6 °F 82% 30.05 in 10.0 mi SW 5.8 mph - N/A   Clear
7:15 AM 31.3 °F 24.7 °F 26.6 °F 83% 30.06 in 10.0 mi SW 6.9 mph - N/A   Clear
7:36 AM 31.6 °F 25.1 °F 27.0 °F 83% 30.07 in 10.0 mi SW 6.9 mph - N/A   Scattered Clouds
7:55 AM 31.8 °F 24.6 °F 27.3 °F 83% 30.07 in 10.0 mi SW 8.1 mph - N/A   Scattered Clouds
8:35 AM 32.4 °F 24.6 °F 28.0 °F 84% 30.09 in 7.0 mi SW 9.2 mph - N/A   Scattered Clouds
8:55 AM 33.1 °F 24.4 °F 28.4 °F 83% 30.10 in 7.0 mi WSW 11.5 mph 17.3 mph N/A   Clear
9:16 AM 33.3 °F 26.4 °F 28.4 °F 82% 30.10 in 7.0 mi SW 8.1 mph - N/A   Scattered Clouds
9:55 AM 34.5 °F 30.4 °F 28.8 °F 79% 30.13 in 10.0 mi WNW 4.6 mph - N/A   Clear
10:16 AM 35.2 °F - 28.9 °F 78% 30.13 in 10.0 mi Calm Calm - N/A   Clear
10:35 AM 35.1 °F 29.3 °F 28.6 °F 77% 30.13 in 10.0 mi SW 6.9 mph - N/A   Clear
10:55 AM 35.8 °F 30.9 °F 28.9 °F 76% 30.13 in 10.0 mi SW 5.8 mph - N/A   Clear
11:15 AM 37.8 °F 34.2 °F 29.3 °F 72% 30.14 in 10.0 mi West 4.6 mph - N/A   Clear
11:35 AM 37.8 °F 32.5 °F 29.3 °F 72% 30.14 in 10.0 mi West 6.9 mph - N/A   Clear
11:55 AM 38.8 °F 36.5 °F 28.9 °F 68% 30.13 in 10.0 mi West 3.5 mph - N/A   Clear
12:16 PM 39.4 °F - 28.9 °F 66% 30.13 in 10.0 mi Calm Calm - N/A   Clear
12:35 PM 38.7 °F - 28.6 °F 67% 30.12 in 10.0 mi Calm Calm - N/A   Clear
12:55 PM 38.5 °F 36.1 °F 29.3 °F 70% 30.11 in 10.0 mi ESE 3.5 mph - N/A   Clear
1:16 PM 38.5 °F 35.0 °F 29.1 °F 69% 30.11 in 10.0 mi East 4.6 mph - N/A   Clear
1:55 PM 39.6 °F 36.3 °F 29.1 °F 66% 30.11 in 10.0 mi ESE 4.6 mph - N/A   Clear
2:16 PM 37.6 °F 33.1 °F 30.2 °F 75% 30.11 in 10.0 mi East 5.8 mph - N/A   Clear
2:55 PM 38.3 °F 33.9 °F 30.0 °F 72% 30.12 in 10.0 mi East 5.8 mph - N/A   Clear
3:15 PM 37.8 °F 32.5 °F 30.0 °F 74% 30.12 in 10.0 mi East 6.9 mph - N/A   Clear
3:35 PM 37.6 °F 35.1 °F 30.6 °F 76% 30.13 in 10.0 mi ENE 3.5 mph - N/A   Clear
3:56 PM 36.7 °F 32.0 °F 30.2 °F 77% 30.13 in 10.0 mi ESE 5.8 mph - N/A   Clear
4:15 PM 35.6 °F 30.7 °F 29.7 °F 79% 30.12 in 10.0 mi ESE 5.8 mph - N/A   Clear
4:35 PM 37.4 °F 29.3 °F 29.8 °F 74% 30.13 in 10.0 mi SE 12.7 mph 17.3 mph N/A   Clear
4:56 PM 35.2 °F 27.6 °F 29.3 °F 79% 30.13 in 7.0 mi SSE 10.4 mph - N/A   Clear
5:15 PM 34.2 °F 26.8 °F 29.1 °F 82% 30.12 in 7.0 mi SE 9.2 mph - N/A   Clear
5:35 PM 33.8 °F 27.7 °F 28.6 °F 81% 30.12 in 7.0 mi SSE 6.9 mph - N/A   Clear
5:56 PM 32.9 °F 28.5 °F 28.2 °F 83% 30.12 in 7.0 mi SSE 4.6 mph - N/A   Clear
6:15 PM 32.2 °F 26.7 °F 28.0 °F 85% 30.11 in 7.0 mi SSE 5.8 mph - N/A   Clear
6:36 PM 32.5 °F 26.2 °F 28.0 °F 83% 30.10 in 7.0 mi SSE 6.9 mph - N/A   Clear
6:55 PM 32.7 °F 26.4 °F 28.4 °F 84% 30.10 in 7.0 mi South 6.9 mph - N/A   Clear
7:15 PM 34.0 °F 25.5 °F 28.4 °F 80% 30.10 in 7.0 mi South 11.5 mph 17.3 mph N/A   Clear
7:36 PM 34.0 °F 26.6 °F 28.4 °F 80% 30.09 in 7.0 mi South 9.2 mph - N/A   Clear
7:55 PM 33.8 °F 25.8 °F 28.4 °F 81% 30.08 in 7.0 mi South 10.4 mph - N/A   Clear
8:36 PM 33.1 °F 24.9 °F 28.4 °F 83% 30.07 in 7.0 mi South 10.4 mph - N/A   Clear
8:55 PM 32.7 °F 23.9 °F 28.4 °F 84% 30.07 in 7.0 mi South 11.5 mph - N/A   Clear
9:16 PM 32.4 °F 24.0 °F 28.2 °F 85% 30.05 in 7.0 mi South 10.4 mph - N/A   Clear
9:35 PM 32.0 °F 23.6 °F 28.0 °F 85% 30.05 in 7.0 mi South 10.4 mph - N/A   Clear
9:55 PM 32.0 °F 22.5 °F 27.9 °F 85% 30.04 in 7.0 mi South 12.7 mph 19.6 mph N/A   Clear
10:15 PM 32.0 °F 23.6 °F 27.9 °F 85% 30.04 in 7.0 mi South 10.4 mph 18.4 mph N/A   Clear
10:35 PM 32.0 °F 22.5 °F 27.5 °F 83% 30.04 in 7.0 mi South 12.7 mph 19.6 mph N/A   Clear
10:55 PM 32.0 °F 23.6 °F 27.3 °F 83% 30.02 in 7.0 mi South 10.4 mph - N/A   Clear
11:15 PM 32.0 °F 23.6 °F 27.0 °F 82% 30.02 in 7.0 mi South 10.4 mph - N/A   Clear
11:36 PM 32.0 °F 22.5 °F 26.6 °F 80% 30.01 in 7.0 mi South 12.7 mph - N/A   Clear
11:55 PM 31.6 °F 22.1 °F 26.2 °F 80% 29.99 in 7.0 mi South 12.7 mph 18.4 mph N/A   Clear